Location: Allison Elementary School
(34.0784°N, 117.7317°W)
Time: 05:17:42
(UTC+00:00)

COSMO-SKYMED 1 - Pass Details

Date: 15 November 2019
Orbit: 621 x 623 km, 97.9° (Epoch: 10 December)

Event Time Altitude Azimuth Distance (km) Brightness Sun altitude
Rises 01:47:16 0° 13° (NNE) 2,905 5.7 -12.5°
Reaches altitude 10° 01:49:28 10° 15° (NNE) 1,995 4.9 -13.0°
Maximum altitude 01:53:49 80° 102° (ESE) 635 2.5 -13.9°
Drops below altitude 10° 01:58:07 10° 189° (S) 1,981 5.4 -14.7°
Sets 02:00:18 0° 191° (S) 2,883 6.3 -15.2°
